Regional Weather Roundup
Issued by NWS

Home | Current Version | Previous Version | Text Only | Print | Product List | Glossary Off
Versions: 1 2 3 4 5 6 7 8 9 10 11 12 13 14 15 16 17 18 19 20 21 22 23 24 25 26 27 28 29 30 31 32 33 34 35 36 37 38 39 40 41 42 43 44 45 46 47 48 49 50

000
ASUS43 KIND 190059
RWRIN

WEATHER ROUNDUP FOR INDIANA
NATIONAL WEATHER SERVICE INDIANAPOLIS IN
800 PM EST THU DEC 18 2014

NOTE: "FAIR" INDICATES FEW OR NO CLOUDS BELOW 12,000 FEET WITH NO
SIGNIFICANT WEATHER AND/OR OBSTRUCTIONS TO VISIBILITY.

* - STATION DOES NOT REPORT WEATHER SUCH AS PRECIPITATION OR FOG.

+ - STATION NOT QUALITY CONTROLLED BY THE NATIONAL WEATHER SERVICE.
    USE DATA WITH CAUTION...ESPECIALLY DEWPOINT AND RELATIVE
    HUMIDITY OBSERVATIONS.

INZ001>003-010>013-019-020-190200-
NORTHWEST INDIANA

CITY           SKY/WX    TMP DP  RH WIND       PRES   REMARKS
GARY /AIRPORT/ CLOUDY    28  18  64 CALM      30.27R
VALPARAISO     NOT AVBL

$$

LMZ046-743>745-190200-
SOUTHERN LAKE MICHIGAN

STATION/POSITION TIME  TEMP WIND        PRES
                       AIR  DIR/SP/G
                 (UTC) (F)  (DEG/KT/KT) (MB)

$$

INZ004-005-014>016-021>024-190200-
NORTH CENTRAL INDIANA

CITY           SKY/WX    TMP DP  RH WIND       PRES   REMARKS
GOSHEN         CLOUDY    27  22  81 W7        30.22S WCI  19
SOUTH BEND     CLOUDY    28  21  75 W6        30.24R WCI  22

$$

INZ006>009-017-018-025>027-190200-
NORTHEAST INDIANA

CITY           SKY/WX    TMP DP  RH WIND       PRES   REMARKS
ANGOLA *+      CLOUDY    27  25  93 W5        30.20S WCI  21
FORT WAYNE     MOCLDY    27  22  81 W5        30.23S WCI  22

$$

INZ028-029-035-036-043>045-051>053-190200-
WEST CENTRAL INDIANA

CITY           SKY/WX    TMP DP  RH WIND       PRES   REMARKS
GREENCASTLE +  CLOUDY    28  19  69 N3        30.25S
LAFAYETTE      CLOUDY    25  22  88 CALM      30.26R
TERRE HAUTE    CLOUDY    29  22  75 N5        30.26R WCI  24

$$

INZ030>032-037>040-046>048-054>057-064-065-190200-
CENTRAL INDIANA

CITY           SKY/WX    TMP DP  RH WIND       PRES   REMARKS
COLUMBUS       CLOUDY    28  25  86 CALM      30.25S
INDIANAPOLIS   CLOUDY    27  21  78 NW6       30.23S WCI  20
-EAGLE CREEK   CLOUDY    27  21  78 NW6       30.23S WCI  20
KOKOMO *+      CLOUDY    27  19  74 NW6       30.24R WCI  20
MT COMFORT *+  CLOUDY    27  23  86 CALM      30.23S
SHELBYVILLE    CLOUDY    29  22  75 CALM      30.23S

$$

INZ033-034-041-042-049-050-058-059-190200-
EAST CENTRAL INDIANA

CITY           SKY/WX    TMP DP  RH WIND       PRES   REMARKS
MUNCIE         CLOUDY    27  21  78 W5        30.22S WCI  22

$$

INZ060-061-067>069-081>083-085>088-190200-
SOUTHWEST INDIANA

CITY           SKY/WX    TMP DP  RH WIND       PRES   REMARKS
EVANSVILLE     CLOUDY    34  25  69 N3        30.26R
HUNTINGBURG *+ CLOUDY    32  25  74 CALM      30.26R

$$

INZ062-063-066-070>080-084-089>092-190200-
SOUTH CENTRAL AND SOUTHEAST INDIANA

CITY           SKY/WX    TMP DP  RH WIND       PRES   REMARKS
BLOOMINGTON    CLOUDY    28  23  81 N3        30.23S

$$



USA.gov is the U.S. government's official web portal to all federal, state and local government web resources and services.